Weather History for Poughkeepsie, NY

Change the Weather History Date:

Monday, February 4, 2013

  Actual Average Record
Temperature  
Mean Temperature 27 °F 27 °F  
Max Temperature 32 °F 37 °F 62 °F (1991)
Min Temperature 22 °F 16 °F -10 °F (1985)
Degree Days  
Heating Degree Days 38 38  
Month to date heating degree days 160 154  
Since 1 July heating degree days 3311 3706  
Cooling Degree Days 0 0  
Month to date cooling degree days 0 0  
Year to date cooling degree days 0 0  
Moisture  
Dew Point 10 °F    
Average Humidity 50    
Maximum Humidity 68    
Minimum Humidity 31    
Precipitation  
Precipitation T in 0.09 in 1.38 in (1961)
Month to date precipitation T 0.37  
Year to date precipitation 2.05 3.45  
Sea Level Pressure  
Sea Level Pressure 29.86 in    
Wind  
Wind Speed 11 mph (West)    
Max Wind Speed 20 mph    
Max Gust Speed 27 mph    
Visibility 9 miles    
Events Snow    
T = Trace of Precipitation, MM = Missing Value Source: NWS Daily Summary

Daily Weather History Graph

Daily Weather History Graph

Search for Another Location

Airport:

Trip Planner

Search our weather history database for the weather conditions in past years. The results will help you decide how hot, cold, wet, or windy it might be!

Date:

Astronomy

Feb. 04, 2013 Rise Set
Actual Time 7:04 AM EST 5:15 PM EST
Civil Twilight 6:34 AM EST 5:44 PM EST
Nautical Twilight 6:01 AM EST 6:17 PM EST
Astronomical Twilight 5:29 AM EST 6:50 PM EST
Moon 1:37 AM EST (2/4) 11:35 AM EST (2/4)
Length of Visible Light 11h 09m
Length of Day
10h 11m
Last Quarter, 37% of the Moon is Illuminated
Feb 4
Last Quarter
Feb 10
New
Feb 17
First Quarter
Feb 25
Full
Mar 4
Last Quarter

Hourly Weather History & Observations

Time (EST) Temp. Windchill Dew Point Humidity Pressure Visibility Wind Dir Wind Speed Gust Speed Precip Events Conditions
12:53 AM 25.0 °F - 18.0 °F 75% 29.78 in 2.0 mi Calm Calm - 0.00 in Snow Light Snow
12:59 AM 24.8 °F - 19.4 °F 80% 29.78 in 2.0 mi Calm Calm - 0.00 in Snow Light Snow
1:09 AM 24.8 °F 20.5 °F 19.4 °F 80% 29.78 in 5.0 mi South 3.5 mph - 0.00 in Snow Light Snow
1:44 AM 24.8 °F 20.5 °F 19.4 °F 80% 29.78 in 10.0 mi SW 3.5 mph - 0.00 in   Overcast
1:53 AM 25.0 °F - 18.0 °F 75% 29.78 in 10.0 mi Calm Calm - 0.00 in   Overcast
2:05 AM 24.8 °F 17.9 °F 17.6 °F 74% 29.79 in 10.0 mi West 5.8 mph - N/A   Overcast
2:53 AM 25.0 °F 18.1 °F 16.0 °F 69% 29.79 in 9.0 mi WNW 5.8 mph - 0.00 in   Mostly Cloudy
3:53 AM 23.0 °F 17.0 °F 14.0 °F 68% 29.81 in 10.0 mi WSW 4.6 mph - N/A   Partly Cloudy
5:53 AM 23.0 °F 12.4 °F 8.1 °F 53% 29.86 in 10.0 mi West 10.4 mph 18.4 mph N/A   Clear
6:53 AM 23.0 °F 10.6 °F 8.1 °F 53% 29.88 in 10.0 mi West 13.8 mph - N/A   Partly Cloudy
7:53 AM 23.0 °F 13.1 °F 7.0 °F 50% 29.89 in 10.0 mi West 9.2 mph - N/A   Partly Cloudy
8:53 AM 24.1 °F 12.0 °F 8.1 °F 51% 29.91 in 10.0 mi WSW 13.8 mph 20.7 mph N/A   Partly Cloudy
9:53 AM 26.1 °F 14.5 °F 8.1 °F 47% 29.91 in 10.0 mi West 13.8 mph 20.7 mph N/A   Clear
10:53 AM 27.0 °F 15.2 °F 6.1 °F 41% 29.91 in 10.0 mi West 15.0 mph - N/A   Overcast
11:53 AM 28.0 °F 17.0 °F - N/A% 29.89 in - WNW 13.8 mph 18.4 mph N/A   Mostly Cloudy
12:53 PM 30.9 °F 20.2 °F - N/A% 29.88 in 10.0 mi West 15.0 mph 25.3 mph N/A   Mostly Cloudy
1:53 PM 30.9 °F 19.4 °F 3.9 °F 32% 29.87 in 10.0 mi West 17.3 mph 24.2 mph N/A   Mostly Cloudy
2:53 PM 30.9 °F 18.7 °F 3.0 °F 31% 29.87 in 10.0 mi West 19.6 mph 26.5 mph N/A   Partly Cloudy
3:53 PM 30.0 °F 21.1 °F 3.0 °F 32% 29.88 in 10.0 mi West 10.4 mph - N/A   Partly Cloudy
4:53 PM 28.0 °F 16.5 °F 3.0 °F 34% 29.90 in 10.0 mi West 15.0 mph 21.9 mph N/A   Clear
5:53 PM 27.0 °F 17.3 °F 3.9 °F 37% 29.92 in 10.0 mi West 10.4 mph 17.3 mph N/A   Clear
6:53 PM 27.0 °F 23.0 °F 3.9 °F 37% 29.94 in 10.0 mi West 3.5 mph - N/A   Clear
7:53 PM 26.1 °F - 5.0 °F 41% 29.94 in 10.0 mi Calm Calm - N/A   Clear